Change the Weather History Date:

Sunday, April 20, 2014

  Actual Average Record
Temperature  
Mean Temperature 48 °F -  
Max Temperature 70 °F 55 °F 85 °F (1980)
Min Temperature 26 °F 32 °F 13 °F (2013)
Degree Days  
Heating Degree Days 17    
Moisture  
Dew Point 31 °F    
Average Humidity 56    
Maximum Humidity 99    
Minimum Humidity 20    
Precipitation  
Precipitation 0.00 in - - ()
Sea Level Pressure  
Sea Level Pressure 29.98 in    
Wind  
Wind Speed 3 mph (South)    
Max Wind Speed 14 mph    
Max Gust Speed 17 mph    
Visibility 9 miles    
Events      
Averages and records for this station are not official NWS values.
T = Trace of Precipitation, MM = Missing Value Source: NWS Daily Summary

Daily Weather History Graph

Daily Weather History Graph

Search for Another Location

Airport or City:

Trip Planner

Search our weather history database for the weather conditions in past years. The results will help you decide how hot, cold, wet, or windy it might be!

Date:

Astronomy

Apr. 20, 2014 Rise Set
Actual Time 6:21 AM CDT 8:16 PM CDT
Civil Twilight 5:48 AM CDT 8:49 PM CDT
Nautical Twilight 5:08 AM CDT 9:29 PM CDT
Astronomical Twilight 4:24 AM CDT 10:14 PM CDT
Moon 1:05 AM CDT (4/20) 10:35 AM CDT (4/20)
Length of Visible Light 15h 00m
Length of Day
13h 54m
Waning Gibbous, 68% of the Moon is Illuminated
Apr 20
Waning Gibbous
Apr 22
Last Quarter
Apr 29
New
May 6
First Quarter
May 14
Full

Hourly Weather History & Observations

Time (CDT) Temp. Windchill Dew Point Humidity Pressure Visibility Wind Dir Wind Speed Gust Speed Precip Events Conditions
12:12 AM 40.6 °F 37.5 °F 35.4 °F 82% 30.00 in 10.0 mi WNW 4.6 mph - N/A   Clear
12:31 AM 36.1 °F 31.4 °F 32.9 °F 88% 30.00 in 10.0 mi West 5.8 mph - N/A   Clear
12:51 AM 39.6 °F 35.4 °F 34.9 °F 83% 30.00 in 10.0 mi West 5.8 mph - N/A   Clear
1:12 AM 34.9 °F - 32.5 °F 91% 30.01 in 10.0 mi Calm Calm - N/A   Clear
1:31 AM 38.3 °F - 34.2 °F 85% 30.01 in 10.0 mi Calm Calm - N/A   Clear
1:51 AM 37.2 °F 34.7 °F 33.1 °F 85% 30.01 in 10.0 mi West 3.5 mph - N/A   Clear
2:12 AM 34.3 °F 30.2 °F 32.4 °F 92% 30.01 in 10.0 mi West 4.6 mph - N/A   Clear
2:31 AM 33.1 °F 28.7 °F 32.0 °F 96% 30.01 in 10.0 mi West 4.6 mph - N/A   Clear
2:51 AM 29.8 °F 26.3 °F 28.4 °F 94% 30.01 in 10.0 mi West 3.5 mph - N/A   Clear
3:12 AM 32.0 °F - 30.7 °F 95% 30.02 in 10.0 mi Calm Calm - N/A   Clear
3:31 AM 32.0 °F - 31.1 °F 96% 30.02 in 10.0 mi Calm Calm - N/A   Clear
3:51 AM 31.5 °F - 28.9 °F 90% 30.02 in 10.0 mi Calm Calm - N/A   Clear
4:12 AM 30.2 °F - 28.9 °F 95% 30.02 in 10.0 mi Calm Calm - N/A   Clear
4:31 AM 29.1 °F - 28.4 °F 97% 30.02 in 10.0 mi Calm Calm - N/A   Clear
4:51 AM 28.4 °F - 27.3 °F 96% 30.02 in 10.0 mi Calm Calm - N/A   Clear
5:12 AM 28.9 °F - 28.0 °F 96% 30.02 in 10.0 mi Calm Calm - N/A   Clear
5:31 AM 28.4 °F - 27.9 °F 98% 30.02 in 2.5 mi Calm Calm - N/A   Clear
5:51 AM 26.6 °F - 26.1 °F 98% 30.02 in 0.8 mi Calm Calm - N/A   Mist
6:12 AM 26.4 °F - 26.2 °F 99% 30.02 in 0.8 mi Calm Calm - N/A   Mist
6:31 AM 27.5 °F - 27.3 °F 99% 30.03 in 5.0 mi Calm Calm - N/A   Clear
6:51 AM 27.0 °F - 26.1 °F 96% 30.04 in 10.0 mi Calm Calm - N/A   Clear
7:12 AM 27.9 °F - 27.3 °F 98% 30.04 in 7.0 mi Calm Calm - N/A   Clear
7:31 AM 30.7 °F - 30.2 °F 98% 30.04 in 7.0 mi Calm Calm - N/A   Clear
7:52 AM 35.4 °F - 33.8 °F 94% 30.04 in 10.0 mi Calm Calm - N/A   Clear
8:12 AM 38.8 °F - 34.5 °F 84% 30.04 in 10.0 mi Calm Calm - N/A   Clear
8:31 AM 41.0 °F - 35.1 °F 79% 30.04 in 10.0 mi Calm Calm - N/A   Clear
8:51 AM 43.7 °F - 35.1 °F 72% 30.04 in 10.0 mi Calm Calm - N/A   Clear
9:12 AM 46.6 °F - 34.9 °F 64% 30.03 in 10.0 mi Calm Calm - N/A   Clear
9:31 AM 48.4 °F - 33.8 °F 57% 30.03 in 10.0 mi Calm Calm - N/A   Clear
9:51 AM 51.1 °F - 32.0 °F 48% 30.03 in 7.0 mi SSE 3.5 mph - N/A   Clear
10:12 AM 52.9 °F - 31.3 °F 44% 30.02 in 10.0 mi Calm Calm - N/A   Clear
10:31 AM 53.4 °F - 31.8 °F 44% 30.01 in 10.0 mi East 5.8 mph - N/A   Clear
10:51 AM 55.4 °F - 32.7 °F 42% 30.01 in 7.0 mi ESE 5.8 mph - N/A   Clear
11:12 AM 55.8 °F - 32.2 °F 41% 30.01 in 10.0 mi SE 4.6 mph - N/A   Clear
11:31 AM 57.0 °F - 28.8 °F 34% 30.02 in 10.0 mi East 5.8 mph - N/A   Clear
11:51 AM 58.8 °F - 31.6 °F 36% 30.02 in 10.0 mi SE 6.9 mph - N/A   Clear
12:12 PM 59.7 °F - 32.0 °F 35% 30.01 in 7.0 mi SSE 5.8 mph - N/A   Clear
12:31 PM 61.9 °F - 31.8 °F 32% 30.01 in 10.0 mi South 4.6 mph - N/A   Clear
1:11 PM 63.3 °F - 30.2 °F 29% 30.00 in 10.0 mi East 3.5 mph - N/A   Clear
1:31 PM 64.4 °F - 30.9 °F 29% 30.00 in 10.0 mi Calm Calm - N/A   Clear
1:52 PM 64.9 °F - 31.3 °F 28% 29.99 in 10.0 mi NW 3.5 mph - N/A   Clear
2:12 PM 66.4 °F - 30.9 °F 27% 29.99 in 7.0 mi SW 8.1 mph - N/A   Clear
2:31 PM 66.9 °F - 30.0 °F 25% 29.98 in 10.0 mi SSW 5.8 mph - N/A   Clear
2:51 PM 68.4 °F - 30.9 °F 25% 29.98 in 10.0 mi West 13.8 mph - N/A   Clear
3:12 PM 68.2 °F - 29.7 °F 24% 29.97 in 10.0 mi NNW 8.1 mph - N/A   Clear
3:31 PM 69.1 °F - 30.6 °F 24% 29.97 in 5.0 mi NW 3.5 mph - N/A   Haze
3:52 PM 69.1 °F - 28.8 °F 22% 29.96 in 10.0 mi WSW 5.8 mph - N/A   Clear
4:12 PM 70.0 °F - 28.4 °F 21% 29.96 in 10.0 mi West 6.9 mph 17.3 mph N/A   Clear
4:31 PM 69.8 °F - 28.2 °F 21% 29.96 in 10.0 mi South 5.8 mph - N/A   Clear
4:51 PM 70.3 °F - 29.1 °F 22% 29.95 in 10.0 mi WNW 10.4 mph - N/A   Clear
5:12 PM 69.6 °F - 28.4 °F 22% 29.94 in 7.0 mi West 5.8 mph - N/A   Clear
5:31 PM 70.2 °F - 27.7 °F 21% 29.94 in 10.0 mi WSW 6.9 mph - N/A   Clear
5:51 PM 69.3 °F - 26.4 °F 20% 29.94 in 10.0 mi West 6.9 mph - N/A   Clear
6:12 PM 69.3 °F - 27.9 °F 21% 29.93 in 10.0 mi West 4.6 mph - N/A   Clear
6:31 PM 68.2 °F - 27.5 °F 22% 29.93 in 7.0 mi West 4.6 mph - N/A   Clear
6:51 PM 66.4 °F - 31.6 °F 27% 29.93 in 7.0 mi ESE 4.6 mph - N/A   Clear
7:12 PM 64.8 °F - 31.8 °F 29% 29.92 in 7.0 mi East 5.8 mph - N/A   Clear
7:31 PM 61.7 °F - 32.2 °F 33% 29.92 in 7.0 mi Calm Calm - N/A   Clear
7:51 PM 61.2 °F - 32.0 °F 33% 29.92 in 10.0 mi Calm Calm - N/A   Clear
8:12 PM 58.3 °F - 32.0 °F 37% 29.91 in 10.0 mi SE 4.6 mph - N/A   Clear
8:31 PM 56.1 °F - 32.0 °F 40% 29.92 in 10.0 mi SE 3.5 mph - N/A   Clear
8:51 PM 55.8 °F - 31.5 °F 40% 29.91 in 10.0 mi ESE 5.8 mph - N/A   Clear
9:12 PM 53.1 °F - 31.3 °F 43% 29.91 in 10.0 mi ESE 3.5 mph - N/A   Clear
9:31 PM 53.6 °F - 31.3 °F 43% 29.91 in 10.0 mi SE 3.5 mph - N/A   Clear
9:51 PM 53.2 °F - 31.3 °F 43% 29.91 in 10.0 mi SSE 4.6 mph - N/A   Clear
10:12 PM 52.3 °F - 31.3 °F 45% 29.90 in 10.0 mi SSE 6.9 mph - N/A   Clear
10:31 PM 49.5 °F - 31.6 °F 50% 29.89 in 10.0 mi SE 6.9 mph - N/A   Clear
10:51 PM 49.3 °F - 30.7 °F 49% 29.88 in 10.0 mi SSE 9.2 mph - N/A   Clear
11:12 PM 49.5 °F - 30.2 °F 48% 29.88 in 10.0 mi SSE 9.2 mph - N/A   Clear
11:31 PM 49.5 °F - 29.7 °F 47% 29.87 in 10.0 mi SSE 8.1 mph - N/A   Clear
11:51 PM 48.9 °F - 29.3 °F 47% 29.86 in 10.0 mi SSE 6.9 mph - N/A   Clear